This demonstration page uses our WeatherBlox Daily Observations layout. Learn more.

Left ArrowRight Arrow

41.12389, -100.76542

Hourly Observations for July 22, 2015

Temp ( °F °C ) Dew Point ( °F °C ) Humidity (%) Winds ( mph kmh ) Pressure ( in mb ) Visibility ( mi km ) Precip ( " mm )
12:53 am 00:53 Clear 71 21.7 58 14.4 63 63 SE 10 17 29.87 1012 10 16 0.00 0.00
1:53 am 01:53 Clear 70 21.1 58 14.4 66 66 SE 12 19 29.86 1011 10 16 0.00 0.00
2:53 am 02:53 Cloudy 69 20.6 58 14.4 68 68 SE 10 17 29.86 1011 10 16 0.00 0.00
3:53 am 03:53 Cloudy 68 20 58 14.4 70 70 SSE 12 19 29.86 1011 10 16 0.00 0.00
4:53 am 04:53 Cloudy 67 19.4 58 14.4 73 73 SSE 9 15 29.86 1011 10 16 0.00 0.00
5:53 am 05:53 Cloudy 67 19.4 58 14.4 73 73 SE 7 11 29.86 1011 10 16 0.00 0.03
6:53 am 06:53 Cloudy with Rain 63 17.2 60 15.6 90 90 ESE 10 17 29.87 1011 8 13 0.10 2.54
7:14 am 07:14 Cloudy with Light Rain 64 18 61 16 88 88 ESE 9 15 29.85 1011 10 16 0.00 0.00
7:53 am 07:53 Cloudy with Light Rain 64 17.8 61 16.1 90 90 ESE 9 15 29.86 1011 10 16 0.01 0.25
8:31 am 08:31 Cloudy 64 17.8 62 16.7 93 93 ESE 12 19 29.85 1011 10 16 0.00 0.03
8:53 am 08:53 Cloudy 64 17.8 62 16.7 93 93 ESE 12 19 29.87 1012 10 16 0.00 0.03
9:33 am 09:33 Cloudy 66 18.9 64 17.8 93 93 ESE 9 15 29.83 1010 10 16 0.00 0.00
9:53 am 09:53 Cloudy 66 18.9 64 17.8 93 93 SE 7 11 29.87 1012 10 16 0.00 0.00
10:01 am 10:01 Cloudy 66 18.9 64 17.8 93 93 SE 6 9 29.83 1010 10 16 0.00 0.00
10:53 am 10:53 Cloudy 68 20 65 18.3 90 90 SE 9 15 29.87 1011 10 16 0.00 0.00
11:53 am 11:53 Cloudy 70 21.1 66 18.9 87 87 SE 7 11 29.88 1012 10 16 0.00 0.00
12:24 pm 12:24 Cloudy 71 21.7 66 18.9 84 84 ESE 12 19 29.80 1009 10 16 0.00 0.00
12:53 pm 12:53 Cloudy 72 22.2 66 18.9 82 82 ESE 13 20 29.86 1011 10 16 0.00 0.00
1:53 pm 13:53 Cloudy 73 22.8 67 19.4 81 81 ESE 8 13 29.84 1010 10 16 0.00 0.00
2:45 pm 14:45 Cloudy 75 24 66 19 74 74 SSE 10 17 29.77 1008 10 16 0.00 0.00
2:53 pm 14:53 Cloudy 75 23.9 66 18.9 74 74 S 9 15 29.83 1010 10 16 0.00 0.00
3:53 pm 15:53 Partly Cloudy 80 26.7 66 18.9 62 62 SE 12 19 29.81 1009 10 16 0.00 0.00
4:53 pm 16:53 Sunny 83 28.3 67 19.4 59 59 SE 9 15 29.79 1009 10 16 0.00 0.00
5:53 pm 17:53 Partly Cloudy 83 28.3 67 19.4 59 59 SE 14 22 29.77 1008 10 16 0.00 0.00
6:53 pm 18:53 Sunny 82 27.8 67 19.4 60 60 SE 10 17 29.77 1008 10 16 0.00 0.00
7:53 pm 19:53 Sunny 80 26.7 66 18.9 62 62 SE 12 19 29.78 1009 10 16 0.00 0.00
8:53 pm 20:53 Sunny 77 25 65 18.3 66 66 SE 10 17 29.80 1009 10 16 0.00 0.00
9:53 pm 21:53 Clear 74 23.3 66 18.9 76 76 ESE 9 15 29.81 1009 10 16 0.00 0.00
10:53 pm 22:53 Clear 70 21.1 66 18.9 87 87 ESE 8 13 29.84 1010 10 16 0.00 0.00
11:53 pm 23:53 Clear 68 20 66 18.9 93 93 ESE 9 15 29.85 1011 10 16 0.00 0.00

Powered by AerisWeather